Corpus Christi, TX

7:44 PM CST on December 16, 2017 (GMT -0600)
Corpus Christi International

Weather History for KCRP - October, 2013

Change the Weather History Date:

Wednesday, October 9, 2013

  Actual Average Record
Temperature  
Mean Temperature 76 °F 76 °F  
Max Temperature 89 °F 86 °F 96 °F (1962)
Min Temperature 63 °F 67 °F 44 °F (2000)
Degree Days  
Heating Degree Days 0 0  
Month to date heating degree days 0 0  
Since 1 July heating degree days 0 0  
Cooling Degree Days 11 11  
Month to date cooling degree days 127 110  
Year to date cooling degree days 3722 3153  
Growing Degree Days 26 (Base 50)    
Moisture  
Dew Point 62 °F    
Average Humidity 66    
Maximum Humidity 90    
Minimum Humidity 42    
Precipitation  
Precipitation 0.00 in 0.12 in 2.78 in (1997)
Month to date precipitation 0.38 1.08  
Year to date precipitation 17.70 25.40  
Snow  
Snow 0.00 in - - ()
Month to date snowfall 0.0  
Since 1 July snowfall 0.0  
Since 1 September snowfall 0.0  
Snow Depth 0.00 in    
Sea Level Pressure  
Sea Level Pressure 29.98 in    
Wind  
Wind Speed 7 mph (SE)    
Max Wind Speed 18 mph    
Max Gust Speed 20 mph    
Visibility 10 miles    
Events      
T = Trace of Precipitation, MM = Missing Value Source: NWS Daily Summary

Daily Weather History Graph

Daily Weather History Graph

Search for Another Location

Airport or City:

Trip Planner

Search our weather history database for the weather conditions in past years. The results will help you decide how hot, cold, wet, or windy it might be!

Date:

Astronomy

Oct. 09, 2013 Rise Set
Actual Time 7:27 AM CDT 7:06 PM CDT
Civil Twilight 7:03 AM CDT 7:30 PM CDT
Nautical Twilight 6:36 AM CDT 7:57 PM CDT
Astronomical Twilight 6:09 AM CDT 8:24 PM CDT
Moon 12:03 PM CDT (10/9) 11:02 PM CDT (10/9)
Length of Visible Light 12h 26m
Length of Day
11h 39m
Waxing Crescent, 25% of the Moon is Illuminated
Oct 9
Waxing Crescent
Oct 11
First Quarter
Oct 18
Full
Oct 26
Last Quarter
Nov 3
New

Hourly Weather History & Observations

Time (CDT) Temp. Heat Index Dew Point Humidity Pressure Visibility Wind Dir Wind Speed Gust Speed Precip Events Conditions
12:51 AM 66.0 °F - 60.1 °F 81% 29.99 in 10.0 mi ESE 6.9 mph - N/A   Clear
1:51 AM 66.0 °F - 60.1 °F 81% 29.99 in 10.0 mi SE 5.8 mph - N/A   Clear
2:51 AM 64.9 °F - 59.0 °F 81% 29.99 in 10.0 mi SE 5.8 mph - N/A   Clear
3:51 AM 64.9 °F - 60.1 °F 84% 29.98 in 10.0 mi ESE 4.6 mph - N/A   Partly Cloudy
4:51 AM 63.0 °F - 59.0 °F 87% 29.97 in 10.0 mi SSE 3.5 mph - N/A   Scattered Clouds
5:51 AM 64.0 °F - 60.1 °F 87% 29.97 in 10.0 mi Calm Calm - N/A   Partly Cloudy
6:51 AM 64.0 °F - 60.1 °F 87% 29.98 in 10.0 mi Calm Calm - N/A   Partly Cloudy
7:51 AM 63.0 °F - 59.0 °F 87% 29.99 in 10.0 mi Calm Calm - N/A   Partly Cloudy
8:51 AM 71.1 °F - 63.0 °F 75% 30.01 in 10.0 mi Calm Calm - N/A   Scattered Clouds
9:51 AM 79.0 °F - 63.0 °F 58% 30.03 in 10.0 mi Calm Calm - N/A   Scattered Clouds
10:51 AM 81.0 °F 81.9 °F 62.1 °F 52% 30.03 in 10.0 mi SSE 8.1 mph - N/A   Scattered Clouds
11:51 AM 84.0 °F 84.0 °F 60.1 °F 44% 30.03 in 10.0 mi SSE 13.8 mph 19.6 mph N/A   Scattered Clouds
12:51 PM 84.9 °F 85.0 °F 61.0 °F 44% 30.01 in 10.0 mi SSE 8.1 mph - N/A   Mostly Cloudy
1:51 PM 86.0 °F 86.1 °F 61.0 °F 43% 29.99 in 10.0 mi SE 8.1 mph - N/A   Scattered Clouds
2:51 PM 86.0 °F 86.8 °F 63.0 °F 46% 29.97 in 10.0 mi ESE 10.4 mph - N/A   Mostly Cloudy
3:51 PM 84.9 °F 85.4 °F 62.1 °F 46% 29.96 in 10.0 mi SE 17.3 mph - N/A   Scattered Clouds
4:51 PM 86.0 °F 86.3 °F 62.1 °F 44% 29.95 in 10.0 mi ESE 12.7 mph - N/A   Scattered Clouds
5:51 PM 84.0 °F 85.4 °F 64.0 °F 51% 29.95 in 10.0 mi SE 12.7 mph - N/A   Scattered Clouds
6:51 PM 81.0 °F 82.5 °F 64.0 °F 56% 29.95 in 10.0 mi ESE 12.7 mph - N/A   Partly Cloudy
7:51 PM 78.1 °F - 66.0 °F 66% 29.95 in 10.0 mi ESE 8.1 mph - N/A   Partly Cloudy
8:51 PM 77.0 °F - 66.0 °F 69% 29.96 in 10.0 mi ESE 8.1 mph - N/A   Partly Cloudy
9:51 PM 75.9 °F - 64.9 °F 69% 29.98 in 10.0 mi SE 9.2 mph - N/A   Partly Cloudy
10:51 PM 73.9 °F - 64.9 °F 73% 29.99 in 10.0 mi ESE 8.1 mph - N/A   Clear
11:51 PM 73.0 °F - 64.9 °F 76% 29.99 in 10.0 mi SE 8.1 mph - N/A   Clear